Time,TemperatureF,DewpointF,PressureIn,WindDirection,WindDirectionDegrees,WindSpeedMPH,WindSpeedGustMPH,Humidity,HourlyPrecipIn,Conditions,Clouds,dailyrainin,SoftwareType,DateUTC
2013-11-23 00:03:00,22.6,12.9,31.12,SE,135,0.0,0.0,66,0.00,,,0.01,meteohub,2013-11-23 07:03:00,
2013-11-23 00:08:00,22.5,13.1,31.12,SE,135,0.0,0.0,67,0.00,,,0.00,meteohub,2013-11-23 07:08:00,
2013-11-23 00:13:00,22.6,13.3,31.12,East,90,0.0,0.0,67,0.00,,,0.00,meteohub,2013-11-23 07:13:00,
2013-11-23 00:18:00,22.6,13.3,31.12,East,90,0.0,0.0,67,0.00,,,0.00,meteohub,2013-11-23 07:18:00,
2013-11-23 00:23:00,22.8,13.1,31.12,East,90,0.0,0.0,66,0.00,,,0.00,meteohub,2013-11-23 07:23:00,
2013-11-23 00:28:00,23.0,12.6,31.12,East,90,0.0,0.0,64,0.00,,,0.00,meteohub,2013-11-23 07:28:00,
2013-11-23 00:33:00,23.2,12.4,31.11,East,90,0.0,0.0,63,0.00,,,0.00,meteohub,2013-11-23 07:33:00,
2013-11-23 00:38:00,23.2,12.4,31.12,East,90,0.0,0.0,63,0.00,,,0.00,meteohub,2013-11-23 07:38:00,
2013-11-23 00:43:00,23.4,12.2,31.12,SE,135,0.0,0.0,62,0.00,,,0.00,meteohub,2013-11-23 07:43:00,
2013-11-23 00:48:00,23.4,12.2,31.11,SE,135,0.0,0.0,62,0.00,,,0.00,meteohub,2013-11-23 07:48:00,
2013-11-23 00:53:00,23.5,12.0,31.12,East,90,0.0,0.0,61,0.00,,,0.00,meteohub,2013-11-23 07:53:00,
2013-11-23 00:58:00,23.5,12.0,31.12,SE,135,0.0,0.0,61,0.00,,,0.00,meteohub,2013-11-23 07:58:00,
2013-11-23 01:03:00,23.5,12.0,31.12,East,90,0.0,0.0,61,0.00,,,0.00,meteohub,2013-11-23 08:03:00,
2013-11-23 01:08:00,23.5,12.0,31.11,SE,135,0.0,0.0,61,0.00,,,0.00,meteohub,2013-11-23 08:08:00,
2013-11-23 01:13:00,23.5,11.7,31.11,East,90,0.0,0.0,60,0.00,,,0.00,meteohub,2013-11-23 08:13:00,
2013-11-23 01:18:00,23.5,11.7,31.11,SE,135,0.0,0.0,60,0.00,,,0.00,meteohub,2013-11-23 08:18:00,
2013-11-23 01:23:00,23.5,11.3,31.11,SE,135,0.0,0.0,59,0.00,,,0.00,meteohub,2013-11-23 08:23:00,
2013-11-23 01:28:00,23.5,11.3,31.11,East,90,0.0,0.0,59,0.00,,,0.00,meteohub,2013-11-23 08:28:00,
2013-11-23 01:33:00,23.5,10.9,31.11,East,90,0.0,0.0,58,0.00,,,0.00,meteohub,2013-11-23 08:33:00,
2013-11-23 01:38:00,23.7,11.1,31.12,East,90,0.0,0.0,58,0.00,,,0.00,meteohub,2013-11-23 08:38:00,
2013-11-23 01:43:00,23.7,10.8,31.12,East,90,0.0,0.0,57,0.00,,,0.00,meteohub,2013-11-23 08:43:00,
2013-11-23 01:48:00,23.7,10.8,31.11,East,90,0.0,0.0,57,0.00,,,0.00,meteohub,2013-11-23 08:48:00,
2013-11-23 01:53:00,23.7,10.4,31.12,East,90,0.0,0.0,56,0.00,,,0.00,meteohub,2013-11-23 08:53:00,
2013-11-23 01:58:00,23.7,9.9,31.12,East,90,0.0,0.0,55,0.00,,,0.00,meteohub,2013-11-23 08:58:00,
2013-11-23 02:03:00,23.5,10.2,31.12,SE,135,0.0,0.0,56,0.00,,,0.00,meteohub,2013-11-23 09:03:00,
2013-11-23 02:08:00,23.5,10.2,31.13,SE,135,0.0,0.0,56,0.00,,,0.00,meteohub,2013-11-23 09:08:00,
2013-11-23 02:13:00,23.7,9.9,31.13,ESE,113,0.0,0.0,55,0.00,,,0.00,meteohub,2013-11-23 09:13:00,
2013-11-23 02:18:00,23.7,9.9,31.13,East,90,0.0,0.0,55,0.00,,,0.00,meteohub,2013-11-23 09:18:00,
2013-11-23 02:23:00,23.9,10.0,31.13,East,90,0.0,0.0,55,0.00,,,0.00,meteohub,2013-11-23 09:23:00,
2013-11-23 02:28:00,23.9,10.0,31.12,SE,135,0.0,0.0,55,0.00,,,0.00,meteohub,2013-11-23 09:28:00,
2013-11-23 02:33:00,23.9,10.0,31.13,East,90,0.0,0.0,55,0.00,,,0.00,meteohub,2013-11-23 09:33:00,
2013-11-23 02:38:00,23.7,10.4,31.13,SE,135,0.0,0.0,56,0.00,,,0.00,meteohub,2013-11-23 09:38:00,
2013-11-23 02:43:00,23.5,10.2,31.13,East,90,0.0,0.0,56,0.00,,,0.00,meteohub,2013-11-23 09:43:00,
2013-11-23 02:48:00,23.4,10.8,31.12,SE,135,0.0,0.0,58,0.00,,,0.00,meteohub,2013-11-23 09:48:00,
2013-11-23 02:53:00,23.2,10.9,31.12,SE,135,0.0,0.0,59,0.00,,,0.00,meteohub,2013-11-23 09:53:00,
2013-11-23 02:58:00,23.2,11.3,31.12,South,180,0.0,0.0,60,0.00,,,0.00,meteohub,2013-11-23 09:58:00,
2013-11-23 03:03:00,23.2,11.3,31.12,East,90,0.0,0.0,60,0.00,,,0.00,meteohub,2013-11-23 10:03:00,
2013-11-23 03:08:00,23.4,11.8,31.12,SE,135,0.0,0.0,61,0.00,,,0.00,meteohub,2013-11-23 10:08:00,
2013-11-23 03:13:00,23.4,11.8,31.12,East,90,0.0,0.0,61,0.00,,,0.00,meteohub,2013-11-23 10:13:00,
2013-11-23 03:18:00,23.5,12.0,31.12,East,90,0.0,0.0,61,0.00,,,0.00,meteohub,2013-11-23 10:18:00,
2013-11-23 03:23:00,23.5,12.0,31.12,East,90,0.0,0.0,61,0.00,,,0.00,meteohub,2013-11-23 10:23:00,
2013-11-23 03:28:00,23.4,11.8,31.12,East,90,0.0,0.0,61,0.00,,,0.00,meteohub,2013-11-23 10:28:00,
2013-11-23 03:33:00,23.2,11.7,31.12,SE,135,0.0,0.0,61,0.00,,,0.00,meteohub,2013-11-23 10:33:00,
2013-11-23 03:38:00,23.0,11.8,31.12,SE,135,0.0,0.0,62,0.00,,,0.00,meteohub,2013-11-23 10:38:00,
2013-11-23 03:43:00,23.0,11.8,31.12,East,90,0.0,0.0,62,0.00,,,0.00,meteohub,2013-11-23 10:43:00,
2013-11-23 03:48:00,22.8,12.6,31.12,SE,135,0.0,0.0,64,0.00,,,0.00,meteohub,2013-11-23 10:48:00,
2013-11-23 03:53:00,23.0,12.2,31.12,East,90,0.0,0.0,63,0.00,,,0.00,meteohub,2013-11-23 10:53:00,
2013-11-23 03:58:00,23.0,12.2,31.12,SE,135,0.0,0.0,63,0.00,,,0.00,meteohub,2013-11-23 10:58:00,
2013-11-23 04:03:00,23.0,12.2,31.12,SE,135,0.0,0.0,63,0.00,,,0.00,meteohub,2013-11-23 11:03:00,
2013-11-23 04:08:00,23.0,12.2,31.12,East,90,0.0,0.0,63,0.00,,,0.00,meteohub,2013-11-23 11:08:00,
2013-11-23 04:13:00,23.0,12.2,31.12,East,90,0.0,0.0,63,0.00,,,0.00,meteohub,2013-11-23 11:13:00,
2013-11-23 04:18:00,22.8,12.7,31.12,East,90,0.0,0.0,65,0.00,,,0.00,meteohub,2013-11-23 11:18:00,
2013-11-23 04:23:00,23.0,12.6,31.12,East,90,0.0,0.0,64,0.00,,,0.00,meteohub,2013-11-23 11:23:00,
2013-11-23 04:28:00,23.0,12.6,31.12,East,90,0.0,0.0,64,0.00,,,0.00,meteohub,2013-11-23 11:28:00,
2013-11-23 04:33:00,23.2,12.4,31.12,SE,135,0.0,0.0,63,0.00,,,0.00,meteohub,2013-11-23 11:33:00,
2013-11-23 04:38:00,23.4,12.6,31.12,East,90,0.0,0.0,63,0.00,,,0.00,meteohub,2013-11-23 11:38:00,
2013-11-23 04:43:00,23.5,12.7,31.12,East,90,0.0,0.0,63,0.00,,,0.00,meteohub,2013-11-23 11:43:00,
2013-11-23 04:48:00,23.5,12.4,31.12,ESE,113,0.0,0.0,62,0.00,,,0.00,meteohub,2013-11-23 11:48:00,
2013-11-23 04:53:00,23.7,12.6,31.12,ESE,113,0.0,0.0,62,0.00,,,0.00,meteohub,2013-11-23 11:53:00,
2013-11-23 04:58:00,23.9,12.7,31.12,East,90,0.0,0.0,62,0.00,,,0.00,meteohub,2013-11-23 11:58:00,
2013-11-23 05:03:00,23.9,12.7,31.12,SE,135,0.0,0.0,62,0.00,,,0.00,meteohub,2013-11-23 12:03:00,
2013-11-23 05:08:00,23.9,12.4,31.12,SE,135,0.0,0.0,61,0.00,,,0.00,meteohub,2013-11-23 12:08:00,
2013-11-23 05:13:00,23.9,12.4,31.12,SE,135,0.0,0.0,61,0.00,,,0.00,meteohub,2013-11-23 12:13:00,
2013-11-23 05:18:00,23.9,12.4,31.12,East,90,0.0,0.0,61,0.00,,,0.00,meteohub,2013-11-23 12:18:00,
2013-11-23 05:23:00,24.1,12.6,31.12,SE,135,0.0,0.0,61,0.00,,,0.00,meteohub,2013-11-23 12:23:00,
2013-11-23 05:28:00,24.3,12.7,31.12,East,90,0.0,0.0,61,0.00,,,0.00,meteohub,2013-11-23 12:28:00,
2013-11-23 05:33:00,24.4,12.9,31.12,East,90,0.0,0.0,61,0.00,,,0.00,meteohub,2013-11-23 12:33:00,
2013-11-23 05:38:00,24.6,12.7,31.12,East,90,0.0,0.0,60,0.00,,,0.00,meteohub,2013-11-23 12:38:00,
2013-11-23 05:43:00,24.8,12.6,31.12,East,90,0.0,0.0,59,0.00,,,0.00,meteohub,2013-11-23 12:43:00,
2013-11-23 05:48:00,24.8,12.6,31.12,SE,135,0.0,0.0,59,0.00,,,0.00,meteohub,2013-11-23 12:48:00,
2013-11-23 05:53:00,25.0,12.4,31.12,East,90,0.0,0.0,58,0.00,,,0.00,meteohub,2013-11-23 12:53:00,
2013-11-23 05:58:00,25.0,11.8,31.12,East,90,0.0,0.0,57,0.00,,,0.00,meteohub,2013-11-23 12:58:00,
2013-11-23 06:03:00,25.0,11.8,31.13,East,90,0.0,0.0,57,0.00,,,0.00,meteohub,2013-11-23 13:03:00,
2013-11-23 06:08:00,25.0,11.8,31.13,East,90,0.0,0.0,57,0.00,,,0.00,meteohub,2013-11-23 13:08:00,
2013-11-23 06:13:00,25.0,11.8,31.13,East,90,0.0,0.0,57,0.00,,,0.00,meteohub,2013-11-23 13:13:00,
2013-11-23 06:18:00,25.0,11.8,31.12,East,90,0.0,0.0,57,0.00,,,0.00,meteohub,2013-11-23 13:18:00,
2013-11-23 06:23:00,24.8,11.7,31.13,East,90,0.0,0.0,57,0.00,,,0.00,meteohub,2013-11-23 13:23:00,
2013-11-23 06:28:00,24.6,12.0,31.13,East,90,0.0,0.0,58,0.00,,,0.00,meteohub,2013-11-23 13:28:00,
2013-11-23 06:33:00,24.6,12.0,31.13,NE,45,0.0,0.0,58,0.00,,,0.00,meteohub,2013-11-23 13:33:00,
2013-11-23 06:38:00,24.4,12.2,31.12,East,90,0.0,0.0,59,0.00,,,0.00,meteohub,2013-11-23 13:38:00,
2013-11-23 06:43:00,24.4,12.2,31.13,East,90,0.0,0.0,59,0.00,,,0.00,meteohub,2013-11-23 13:43:00,
2013-11-23 06:48:00,24.4,12.2,31.12,ESE,113,0.0,0.0,59,0.00,,,0.00,meteohub,2013-11-23 13:48:00,
2013-11-23 06:53:00,24.4,12.6,31.13,SE,135,0.0,0.0,60,0.00,,,0.00,meteohub,2013-11-23 13:53:00,
2013-11-23 06:58:00,24.4,12.2,31.13,East,90,0.0,0.0,59,0.00,,,0.00,meteohub,2013-11-23 13:58:00,
2013-11-23 07:03:00,24.4,12.2,31.13,East,90,0.0,0.0,59,0.00,,,0.00,meteohub,2013-11-23 14:03:00,
2013-11-23 07:08:00,24.4,12.2,31.13,SE,135,0.0,0.0,59,0.00,,,0.00,meteohub,2013-11-23 14:08:00,
2013-11-23 07:13:00,24.4,12.2,31.13,East,90,0.0,0.0,59,0.00,,,0.00,meteohub,2013-11-23 14:13:00,
2013-11-23 07:18:00,24.4,12.2,31.12,East,90,0.0,0.0,59,0.00,,,0.00,meteohub,2013-11-23 14:18:00,
2013-11-23 07:23:00,24.4,12.6,31.13,East,90,0.0,0.0,60,0.00,,,0.00,meteohub,2013-11-23 14:23:00,
2013-11-23 07:28:00,24.4,12.6,31.13,ENE,68,0.0,0.0,60,0.00,,,0.00,meteohub,2013-11-23 14:28:00,
2013-11-23 07:33:00,24.6,12.7,31.13,SE,135,0.0,0.0,60,0.00,,,0.00,meteohub,2013-11-23 14:33:00,
2013-11-23 07:38:00,24.6,12.7,31.13,East,90,0.0,0.0,60,0.00,,,0.00,meteohub,2013-11-23 14:38:00,
2013-11-23 07:43:00,24.8,12.2,31.13,East,90,0.0,0.0,58,0.00,,,0.00,meteohub,2013-11-23 14:43:00,
2013-11-23 07:48:00,24.8,12.2,31.13,East,90,0.0,0.0,58,0.00,,,0.00,meteohub,2013-11-23 14:48:00,
2013-11-23 07:54:00,25.0,12.4,31.13,SE,135,0.0,0.0,58,0.00,,,0.00,meteohub,2013-11-23 14:54:00,
2013-11-23 07:59:00,25.2,12.4,31.13,East,90,0.0,0.0,58,0.00,,,0.00,meteohub,2013-11-23 14:59:00,
2013-11-23 08:04:00,25.3,12.6,31.13,SE,135,0.0,0.0,58,0.00,,,0.00,meteohub,2013-11-23 15:04:00,
2013-11-23 08:09:00,25.5,12.7,31.13,East,90,0.0,0.0,58,0.00,,,0.00,meteohub,2013-11-23 15:09:00,
2013-11-23 08:14:00,25.7,12.6,31.13,SE,135,0.0,0.0,57,0.00,,,0.00,meteohub,2013-11-23 15:14:00,
2013-11-23 08:19:00,26.1,12.9,31.13,SE,135,0.0,0.0,57,0.00,,,0.00,meteohub,2013-11-23 15:19:00,
2013-11-23 08:24:00,26.4,13.3,31.12,SE,135,0.0,0.0,57,0.00,,,0.00,meteohub,2013-11-23 15:24:00,
2013-11-23 08:29:00,27.1,13.1,31.12,SE,135,0.0,0.0,55,0.00,,,0.00,meteohub,2013-11-23 15:29:00,
2013-11-23 08:34:00,28.2,14.2,31.12,SSE,158,0.0,0.0,55,0.00,,,0.00,meteohub,2013-11-23 15:34:00,
2013-11-23 08:39:00,28.9,15.6,31.12,SE,135,0.0,0.0,57,0.00,,,0.00,meteohub,2013-11-23 15:39:00,
2013-11-23 08:44:00,29.3,15.6,31.12,SE,135,0.0,0.0,56,0.00,,,0.00,meteohub,2013-11-23 15:44:00,
2013-11-23 08:49:00,29.7,15.4,31.12,SE,135,4.0,0.0,55,0.00,,,0.00,meteohub,2013-11-23 15:49:00,
2013-11-23 08:54:00,30.2,15.6,31.12,East,90,8.0,0.0,54,0.00,,,0.00,meteohub,2013-11-23 15:54:00,
2013-11-23 08:59:00,30.6,15.4,31.12,East,90,10.0,10.0,53,0.00,,,0.00,meteohub,2013-11-23 15:59:00,
2013-11-23 09:04:00,30.7,15.6,31.12,ESE,113,10.0,11.0,53,0.00,,,0.00,meteohub,2013-11-23 16:04:00,
2013-11-23 09:09:00,31.1,15.4,31.12,East,90,11.0,11.0,52,0.00,,,0.00,meteohub,2013-11-23 16:09:00,
2013-11-23 09:14:00,31.5,15.8,31.12,SE,135,9.0,10.0,52,0.00,,,0.00,meteohub,2013-11-23 16:14:00,
2013-11-23 09:19:00,31.6,16.0,31.12,SE,135,11.0,13.0,52,0.00,,,0.00,meteohub,2013-11-23 16:19:00,
2013-11-23 09:24:00,31.6,16.0,31.13,SE,135,9.0,13.0,52,0.00,,,0.00,meteohub,2013-11-23 16:24:00,
2013-11-23 09:29:00,32.0,16.0,31.13,SE,135,10.0,13.0,51,0.00,,,0.00,meteohub,2013-11-23 16:29:00,
2013-11-23 09:34:00,32.2,15.6,31.13,East,90,15.0,15.0,50,0.00,,,0.00,meteohub,2013-11-23 16:34:00,
2013-11-23 09:39:00,32.2,15.6,31.13,SE,135,11.0,13.0,50,0.00,,,0.00,meteohub,2013-11-23 16:39:00,
2013-11-23 09:44:00,32.5,16.0,31.13,SE,135,10.0,15.0,50,0.00,,,0.00,meteohub,2013-11-23 16:44:00,
2013-11-23 09:49:00,32.7,16.2,31.13,East,90,10.0,15.0,50,0.00,,,0.00,meteohub,2013-11-23 16:49:00,
2013-11-23 09:54:00,33.3,16.7,31.12,South,180,9.0,13.0,50,0.00,,,0.00,meteohub,2013-11-23 16:54:00,
2013-11-23 09:59:00,33.4,16.9,31.12,East,90,11.0,13.0,50,0.00,,,0.00,meteohub,2013-11-23 16:59:00,
2013-11-23 10:04:00,33.4,16.9,31.12,SSE,158,11.0,13.0,50,0.00,,,0.00,meteohub,2013-11-23 17:04:00,
2013-11-23 10:09:00,33.4,16.3,31.12,SE,135,12.0,13.0,49,0.00,,,0.00,meteohub,2013-11-23 17:09:00,
2013-11-23 10:14:00,33.4,15.8,31.11,East,90,12.0,15.0,48,0.00,,,0.00,meteohub,2013-11-23 17:14:00,
2013-11-23 10:19:00,33.8,15.6,31.11,SE,135,13.0,15.0,47,0.00,,,0.00,meteohub,2013-11-23 17:19:00,
2013-11-23 10:24:00,34.2,16.5,31.11,East,90,11.0,15.0,48,0.00,,,0.00,meteohub,2013-11-23 17:24:00,
2013-11-23 10:29:00,34.2,16.5,31.11,SE,135,11.0,15.0,48,0.00,,,0.00,meteohub,2013-11-23 17:29:00,
2013-11-23 10:34:00,34.2,16.0,31.10,SE,135,15.0,15.0,47,0.00,,,0.00,meteohub,2013-11-23 17:34:00,
2013-11-23 10:39:00,34.2,16.0,31.10,SE,135,11.0,15.0,47,0.00,,,0.00,meteohub,2013-11-23 17:39:00,
2013-11-23 10:44:00,34.2,16.0,31.10,East,90,13.0,15.0,47,0.00,,,0.00,meteohub,2013-11-23 17:44:00,
2013-11-23 10:49:00,34.0,15.4,31.10,SE,135,11.0,15.0,46,0.00,,,0.00,meteohub,2013-11-23 17:49:00,
2013-11-23 10:54:00,33.3,15.3,31.10,East,90,12.0,15.0,47,0.00,,,0.00,meteohub,2013-11-23 17:54:00,
2013-11-23 10:59:00,32.4,14.9,31.10,East,90,12.0,15.0,48,0.00,,,0.00,meteohub,2013-11-23 17:59:00,
2013-11-23 11:04:00,32.4,15.3,31.10,SE,135,18.0,18.0,49,0.00,,,0.00,meteohub,2013-11-23 18:04:00,
2013-11-23 11:09:00,31.6,15.6,31.10,SE,135,8.0,18.0,51,0.00,,,0.00,meteohub,2013-11-23 18:09:00,
2013-11-23 11:14:00,31.8,16.2,31.10,East,90,13.0,18.0,52,0.00,,,0.00,meteohub,2013-11-23 18:14:00,
2013-11-23 11:19:00,32.2,16.2,31.09,SE,135,10.0,18.0,51,0.00,,,0.00,meteohub,2013-11-23 18:19:00,
2013-11-23 11:24:00,32.2,16.5,31.10,SE,135,12.0,18.0,52,0.00,,,0.00,meteohub,2013-11-23 18:24:00,
2013-11-23 11:29:00,32.5,16.9,31.09,SE,135,13.0,14.0,52,0.00,,,0.00,meteohub,2013-11-23 18:29:00,
2013-11-23 11:34:00,32.5,16.9,31.10,SE,135,10.0,14.0,52,0.00,,,0.00,meteohub,2013-11-23 18:34:00,
2013-11-23 11:39:00,32.7,17.1,31.09,East,90,9.0,14.0,52,0.00,,,0.00,meteohub,2013-11-23 18:39:00,
2013-11-23 11:44:00,32.9,17.2,31.09,SE,135,11.0,13.0,52,0.00,,,0.00,meteohub,2013-11-23 18:44:00,
2013-11-23 11:49:00,33.1,16.9,31.09,SE,135,9.0,12.0,51,0.00,,,0.00,meteohub,2013-11-23 18:49:00,
2013-11-23 11:54:00,32.9,17.2,31.09,South,180,8.0,12.0,52,0.00,,,0.00,meteohub,2013-11-23 18:54:00,
2013-11-23 11:59:00,33.3,17.6,31.09,SE,135,11.0,12.0,52,0.00,,,0.00,meteohub,2013-11-23 18:59:00,
2013-11-23 12:04:00,33.3,17.6,31.09,SE,135,11.0,13.0,52,0.00,,,0.00,meteohub,2013-11-23 19:04:00,
2013-11-23 12:09:00,33.4,17.8,31.08,East,90,11.0,15.0,52,0.00,,,0.00,meteohub,2013-11-23 19:09:00,
2013-11-23 12:14:00,33.8,17.6,31.08,SE,135,11.0,15.0,51,0.00,,,0.00,meteohub,2013-11-23 19:14:00,
2013-11-23 12:19:00,33.8,17.6,31.08,East,90,11.0,15.0,51,0.00,,,0.00,meteohub,2013-11-23 19:19:00,
2013-11-23 12:24:00,34.3,18.1,31.07,SE,135,12.0,15.0,51,0.00,,,0.00,meteohub,2013-11-23 19:24:00,
2013-11-23 12:29:00,34.3,18.1,31.07,SE,135,11.0,15.0,51,0.00,,,0.00,meteohub,2013-11-23 19:29:00,
2013-11-23 12:34:00,34.2,17.4,31.07,East,90,11.0,15.0,50,0.00,,,0.00,meteohub,2013-11-23 19:34:00,
2013-11-23 12:39:00,34.2,17.4,31.07,East,90,11.0,15.0,50,0.00,,,0.00,meteohub,2013-11-23 19:39:00,
2013-11-23 12:44:00,34.3,17.6,31.07,SE,135,12.0,15.0,50,0.00,,,0.00,meteohub,2013-11-23 19:44:00,
2013-11-23 12:49:00,34.5,17.8,31.07,SE,135,9.0,15.0,50,0.00,,,0.00,meteohub,2013-11-23 19:49:00,
2013-11-23 12:54:00,34.7,18.0,31.06,SE,135,13.0,15.0,50,0.00,,,0.00,meteohub,2013-11-23 19:54:00,
2013-11-23 12:59:00,34.5,17.2,31.06,SE,135,11.0,15.0,49,0.00,,,0.00,meteohub,2013-11-23 19:59:00,
2013-11-23 13:04:00,34.5,17.2,31.06,SE,135,9.0,13.0,49,0.00,,,0.00,meteohub,2013-11-23 20:04:00,
2013-11-23 13:09:00,34.3,17.2,31.05,SE,135,13.0,13.0,49,0.00,,,0.00,meteohub,2013-11-23 20:09:00,
2013-11-23 13:14:00,34.2,17.1,31.06,East,90,11.0,13.0,49,0.00,,,0.00,meteohub,2013-11-23 20:14:00,
2013-11-23 13:19:00,34.2,17.1,31.06,SE,135,13.0,15.0,49,0.00,,,0.00,meteohub,2013-11-23 20:19:00,
2013-11-23 13:24:00,33.8,16.7,31.06,SE,135,8.0,15.0,49,0.00,,,0.00,meteohub,2013-11-23 20:24:00,
2013-11-23 13:29:00,33.8,16.7,31.05,East,90,11.0,15.0,49,0.00,,,0.00,meteohub,2013-11-23 20:29:00,
2013-11-23 13:34:00,33.6,17.4,31.05,SE,135,9.0,15.0,51,0.00,,,0.00,meteohub,2013-11-23 20:34:00,
2013-11-23 13:39:00,33.6,17.4,31.05,SE,135,9.0,12.0,51,0.00,,,0.00,meteohub,2013-11-23 20:39:00,
2013-11-23 13:44:00,33.8,17.1,31.05,SE,135,9.0,12.0,50,0.00,,,0.00,meteohub,2013-11-23 20:44:00,
2013-11-23 13:49:00,34.2,18.0,31.05,East,90,8.0,11.0,51,0.00,,,0.00,meteohub,2013-11-23 20:49:00,
2013-11-23 13:54:00,34.7,18.0,31.04,SE,135,11.0,11.0,50,0.00,,,0.00,meteohub,2013-11-23 20:54:00,
2013-11-23 13:59:00,35.2,18.5,31.04,ESE,113,8.0,11.0,50,0.00,,,0.00,meteohub,2013-11-23 20:59:00,
2013-11-23 14:04:00,35.4,18.1,31.04,SE,135,10.0,11.0,49,0.00,,,0.00,meteohub,2013-11-23 21:04:00,
2013-11-23 14:09:00,35.2,18.0,31.04,East,90,11.0,12.0,49,0.00,,,0.00,meteohub,2013-11-23 21:09:00,
2013-11-23 14:14:00,35.2,18.0,31.04,SE,135,11.0,13.0,49,0.00,,,0.00,meteohub,2013-11-23 21:14:00,
2013-11-23 14:19:00,36.0,18.7,31.04,East,90,11.0,15.0,49,0.00,,,0.00,meteohub,2013-11-23 21:19:00,
2013-11-23 14:24:00,37.2,19.8,31.04,East,90,9.0,15.0,49,0.00,,,0.00,meteohub,2013-11-23 21:24:00,
2013-11-23 14:29:00,37.4,20.8,31.04,East,90,8.0,15.0,51,0.00,,,0.00,meteohub,2013-11-23 21:29:00,
2013-11-23 14:34:00,37.8,21.2,31.04,SE,135,11.0,15.0,51,0.00,,,0.00,meteohub,2013-11-23 21:34:00,
2013-11-23 14:39:00,37.8,20.3,31.03,ENE,68,7.0,12.0,49,0.00,,,0.00,meteohub,2013-11-23 21:39:00,
2013-11-23 14:44:00,37.0,18.1,31.04,East,90,12.0,12.0,46,0.00,,,0.00,meteohub,2013-11-23 21:44:00,
2013-11-23 14:49:00,36.3,17.6,31.04,SE,135,11.0,12.0,46,0.00,,,0.00,meteohub,2013-11-23 21:49:00,
2013-11-23 14:54:00,35.6,17.4,31.04,East,90,11.0,12.0,47,0.00,,,0.00,meteohub,2013-11-23 21:54:00,
2013-11-23 14:59:00,36.3,18.5,31.03,SE,135,8.0,12.0,48,0.00,,,0.00,meteohub,2013-11-23 21:59:00,
2013-11-23 15:04:00,36.3,18.5,31.03,SE,135,8.0,12.0,48,0.00,,,0.00,meteohub,2013-11-23 22:04:00,
2013-11-23 15:09:00,35.4,18.1,31.03,East,90,8.0,12.0,49,0.00,,,0.00,meteohub,2013-11-23 22:09:00,
2013-11-23 15:14:00,35.1,17.8,31.03,SE,135,9.0,11.0,49,0.00,,,0.00,meteohub,2013-11-23 22:14:00,
2013-11-23 15:19:00,35.4,18.7,31.03,East,90,8.0,9.0,50,0.00,,,0.00,meteohub,2013-11-23 22:19:00,
2013-11-23 15:24:00,36.3,19.0,31.03,ENE,68,11.0,11.0,49,0.00,,,0.00,meteohub,2013-11-23 22:24:00,
2013-11-23 15:29:00,36.5,18.7,31.03,SE,135,10.0,13.0,48,0.00,,,0.00,meteohub,2013-11-23 22:29:00,
2013-11-23 15:34:00,35.8,18.0,31.03,East,90,9.0,15.0,48,0.00,,,0.00,meteohub,2013-11-23 22:34:00,
2013-11-23 15:39:00,35.6,17.8,31.03,East,90,9.0,15.0,48,0.00,,,0.00,meteohub,2013-11-23 22:39:00,
2013-11-23 15:44:00,35.2,18.0,31.03,East,90,11.0,15.0,49,0.00,,,0.00,meteohub,2013-11-23 22:44:00,
2013-11-23 15:49:00,35.1,17.8,31.03,East,90,11.0,14.0,49,0.00,,,0.00,meteohub,2013-11-23 22:49:00,
2013-11-23 15:54:00,34.3,17.2,31.03,SE,135,11.0,14.0,49,0.00,,,0.00,meteohub,2013-11-23 22:54:00,
2013-11-23 15:59:00,33.4,16.9,31.03,South,180,10.0,14.0,50,0.00,,,0.00,meteohub,2013-11-23 22:59:00,
2013-11-23 16:04:00,32.7,16.2,31.03,SE,135,11.0,12.0,50,0.00,,,0.00,meteohub,2013-11-23 23:04:00,
2013-11-23 16:09:00,32.2,16.2,31.03,SE,135,10.0,12.0,51,0.00,,,0.00,meteohub,2013-11-23 23:09:00,
2013-11-23 16:14:00,31.6,16.5,31.03,SE,135,8.0,12.0,53,0.00,,,0.00,meteohub,2013-11-23 23:14:00,
2013-11-23 16:19:00,31.3,16.2,31.03,East,90,6.0,11.0,53,0.00,,,0.00,meteohub,2013-11-23 23:19:00,
2013-11-23 16:24:00,30.9,16.2,31.03,East,90,7.0,10.0,54,0.00,,,0.00,meteohub,2013-11-23 23:24:00,
2013-11-23 16:29:00,30.9,16.2,31.03,SE,135,8.0,13.0,54,0.00,,,0.00,meteohub,2013-11-23 23:29:00,
2013-11-23 16:34:00,31.1,16.9,31.03,East,90,10.0,13.0,55,0.00,,,0.00,meteohub,2013-11-23 23:34:00,
2013-11-23 16:39:00,31.3,17.1,31.03,East,90,10.0,13.0,55,0.00,,,0.00,meteohub,2013-11-23 23:39:00,
2013-11-23 16:44:00,31.1,16.9,31.03,SE,135,10.0,14.0,55,0.00,,,0.00,meteohub,2013-11-23 23:44:00,
2013-11-23 16:49:00,30.9,16.7,31.03,SE,135,8.0,14.0,55,0.00,,,0.00,meteohub,2013-11-23 23:49:00,
2013-11-23 16:54:00,30.6,16.3,31.03,East,90,8.0,14.0,55,0.00,,,0.00,meteohub,2013-11-23 23:54:00,
2013-11-23 16:59:00,30.4,16.2,31.03,SE,135,6.0,11.0,55,0.00,,,0.00,meteohub,2013-11-23 23:59:00,
2013-11-23 17:04:00,30.4,16.2,31.03,SE,135,6.0,11.0,55,0.00,,,0.00,meteohub,2013-11-24 00:04:00,
2013-11-23 17:09:00,29.7,15.8,31.03,East,90,8.0,9.0,56,0.00,,,0.00,meteohub,2013-11-24 00:09:00,
2013-11-23 17:14:00,29.1,15.8,31.03,East,90,8.0,11.0,57,0.00,,,0.00,meteohub,2013-11-24 00:14:00,
2013-11-23 17:19:00,28.8,15.4,31.03,East,90,9.0,11.0,57,0.00,,,0.00,meteohub,2013-11-24 00:19:00,
2013-11-23 17:24:00,28.4,15.1,31.03,ENE,68,6.0,11.0,57,0.00,,,0.00,meteohub,2013-11-24 00:24:00,
2013-11-23 17:29:00,28.0,13.5,31.04,East,90,8.0,9.0,54,0.00,,,0.00,meteohub,2013-11-24 00:29:00,
2013-11-23 20:38:00,26.1,15.3,31.01,East,90,6.0,-999.0,63,-99.99,,,0.00,meteohub,2013-11-24 03:38:00,
2013-11-23 20:47:00,26.8,15.8,31.01,East,90,5.0,-999.0,63,-99.99,,,0.00,meteohub,2013-11-24 03:47:00,
2013-11-23 20:52:00,27.1,16.2,31.01,East,90,8.0,-999.0,63,-99.99,,,0.00,meteohub,2013-11-24 03:52:00,
2013-11-23 20:57:00,27.9,16.9,31.00,SE,135,4.0,-999.0,63,-99.99,,,0.00,meteohub,2013-11-24 03:57:00,
2013-11-23 21:02:00,28.0,17.1,31.00,NE,45,4.0,-999.0,63,-99.99,,,0.00,meteohub,2013-11-24 04:02:00,
2013-11-23 21:07:00,28.0,17.1,31.00,NE,45,4.0,-999.0,63,-99.99,,,0.00,meteohub,2013-11-24 04:07:00,
2013-11-23 21:12:00,28.6,18.7,31.00,East,90,4.0,-999.0,66,-99.99,,,0.00,meteohub,2013-11-24 04:12:00,
2013-11-23 21:17:00,28.8,18.9,31.00,NE,45,6.0,-999.0,66,-99.99,,,0.00,meteohub,2013-11-24 04:17:00,
2013-11-23 21:22:00,28.9,19.0,31.00,NE,45,5.0,-999.0,66,-99.99,,,0.00,meteohub,2013-11-24 04:22:00,
2013-11-23 21:27:00,28.9,19.0,31.00,NE,45,2.0,-999.0,66,-99.99,,,0.00,meteohub,2013-11-24 04:27:00,
2013-11-23 21:32:00,28.8,18.5,31.00,SE,135,2.0,-999.0,65,-99.99,,,0.00,meteohub,2013-11-24 04:32:00,
2013-11-23 21:37:00,28.4,18.1,31.00,NE,45,2.0,-999.0,65,-99.99,,,0.00,meteohub,2013-11-24 04:37:00,
2013-11-23 21:42:00,28.4,18.1,31.00,East,90,6.0,-999.0,65,-99.99,,,0.00,meteohub,2013-11-24 04:42:00,
2013-11-23 21:47:00,28.6,18.7,31.00,SE,135,5.0,-999.0,66,-99.99,,,0.00,meteohub,2013-11-24 04:47:00,
2013-11-23 21:52:00,28.9,19.4,31.00,NE,45,6.0,-999.0,67,-99.99,,,0.00,meteohub,2013-11-24 04:52:00,
2013-11-23 21:57:00,29.5,19.9,30.99,East,90,8.0,-999.0,67,-99.99,,,0.00,meteohub,2013-11-24 04:57:00,
2013-11-23 22:02:00,29.8,19.9,30.99,East,90,6.0,-999.0,66,-99.99,,,0.00,meteohub,2013-11-24 05:02:00,
2013-11-23 22:07:00,30.0,20.1,30.99,East,90,4.0,-999.0,66,-99.99,,,0.00,meteohub,2013-11-24 05:07:00,
2013-11-23 22:12:00,29.8,19.9,30.99,East,90,7.0,-999.0,66,-99.99,,,0.00,meteohub,2013-11-24 05:12:00,
2013-11-23 22:17:00,29.8,19.9,30.99,East,90,8.0,-999.0,66,-99.99,,,0.00,meteohub,2013-11-24 05:17:00,
2013-11-23 22:22:00,29.8,19.9,30.98,East,90,6.0,-999.0,66,-99.99,,,0.00,meteohub,2013-11-24 05:22:00,
2013-11-23 22:27:00,29.7,20.1,30.98,East,90,4.0,-999.0,67,-99.99,,,0.00,meteohub,2013-11-24 05:27:00,
2013-11-23 22:32:00,29.7,20.1,30.99,East,90,7.0,-999.0,67,-99.99,,,0.00,meteohub,2013-11-24 05:32:00,
2013-11-23 22:37:00,29.7,20.1,30.98,East,90,4.0,-999.0,67,-99.99,,,0.00,meteohub,2013-11-24 05:37:00,
2013-11-23 22:42:00,29.5,20.3,30.99,East,90,4.0,-999.0,68,-99.99,,,0.00,meteohub,2013-11-24 05:42:00,
2013-11-23 22:47:00,29.5,20.3,30.98,East,90,5.0,-999.0,68,-99.99,,,0.00,meteohub,2013-11-24 05:47:00,
2013-11-23 22:52:00,29.5,20.3,30.98,East,90,5.0,-999.0,68,-99.99,,,0.00,meteohub,2013-11-24 05:52:00,
2013-11-23 22:57:00,29.7,20.7,30.98,East,90,4.0,-999.0,69,-99.99,,,0.00,meteohub,2013-11-24 05:57:00,
2013-11-23 23:02:00,29.8,20.8,30.98,East,90,6.0,-999.0,69,-99.99,,,0.00,meteohub,2013-11-24 06:02:00,
2013-11-23 23:07:00,29.8,20.8,30.99,East,90,6.0,-999.0,69,-99.99,,,0.00,meteohub,2013-11-24 06:07:00,
2013-11-23 23:12:00,30.2,20.5,30.99,NE,45,6.0,-999.0,67,-99.99,,,0.00,meteohub,2013-11-24 06:12:00,
2013-11-23 23:17:00,30.2,20.5,30.98,NE,45,8.0,-999.0,67,-99.99,,,0.00,meteohub,2013-11-24 06:17:00,
2013-11-23 23:22:00,30.2,20.8,30.98,East,90,5.0,-999.0,68,-99.99,,,0.00,meteohub,2013-11-24 06:22:00,
2013-11-23 23:27:00,29.8,21.2,30.98,East,90,6.0,-999.0,70,-99.99,,,0.00,meteohub,2013-11-24 06:27:00,
2013-11-23 23:32:00,29.5,21.6,30.98,East,90,4.0,-999.0,72,-99.99,,,0.00,meteohub,2013-11-24 06:32:00,
2013-11-23 23:37:00,29.1,21.2,30.98,SE,135,4.0,-999.0,72,-99.99,,,0.00,meteohub,2013-11-24 06:37:00,
2013-11-23 23:42:00,28.8,21.2,30.98,East,90,4.0,-999.0,73,-99.99,,,0.00,meteohub,2013-11-24 06:42:00,
2013-11-23 23:47:00,28.6,21.4,30.98,SE,135,4.0,-999.0,74,-99.99,,,0.00,meteohub,2013-11-24 06:47:00,
2013-11-23 23:52:00,28.2,19.8,30.97,East,90,4.0,-999.0,70,-99.99,,,0.00,meteohub,2013-11-24 06:52:00,
2013-11-23 23:57:00,27.7,19.6,30.97,East,90,4.0,-999.0,71,-99.99,,,0.00,meteohub,2013-11-24 06:57:00,